| time (UTC) | temp C | wind direction | speed KPH | gust KPH | rain 1hr cm | rain 24hr cm | rain mn cm | humidity % | barometer mb |
| 20260503200034 | 17 | 47 | 0.0 | 9.7 | 0.00 | 0.00 | 0.00 | 38 | 1014.4 |
| 20260503194504 | 16 | 68 | 1.6 | 16.1 | 0.00 | 0.00 | 0.00 | 38 | 1014.8 |
| 20260503193008 | 17 | 64 | 0.0 | 11.3 | 0.00 | 0.00 | 0.00 | 38 | 1015.1 |
| 20260503191600 | 16 | 238 | 0.0 | 9.7 | 0.00 | 0.00 | 0.00 | 36 | 1015.3 |
| 20260503190110 | 17 | 260 | 0.0 | 4.8 | 0.00 | 0.00 | 0.00 | 39 | 1016.0 |
| 20260503184516 | 17 | 179 | 0.0 | 1.6 | 0.00 | 0.00 | 0.00 | 37 | 1016.2 |
| 20260503183034 | 17 | 187 | 0.0 | 11.3 | 0.00 | 0.00 | 0.00 | 35 | 1016.5 |
| 20260503181553 | 16 | 168 | 0.0 | 11.3 | 0.00 | 0.00 | 0.00 | 36 | 1016.7 |
| 20260503180016 | 16 | 4 | 0.0 | 0.0 | 0.00 | 0.00 | 0.00 | 41 | 1016.8 |
| 20260503174508 | 15 | 125 | 0.0 | 20.9 | 0.00 | 0.00 | 0.00 | 37 | 1017.1 |
| 20260503173108 | 15 | 112 | 0.0 | 11.3 | 0.00 | 0.00 | 0.00 | 36 | 1017.2 |
| 20260503171607 | 15 | 223 | 0.0 | 4.8 | 0.00 | 0.00 | 0.00 | 36 | 1017.5 |
| 20260503170111 | 15 | 75 | 0.0 | 12.9 | 0.00 | 0.00 | 0.00 | 35 | 1017.7 |
| 20260503110104 | 0 | 207 | 0.0 | 0.0 | 0.00 | 0.00 | 0.00 | 92 | 1018.7 |
| 20260503090112 | 0 | 207 | 0.0 | 0.0 | 0.00 | 0.00 | 0.00 | 90 | 1018.4 |
| 20260503081543 | 0 | 207 | 0.0 | 0.0 | 0.00 | 0.00 | 0.00 | 86 | 1018.2 |
| 20260503071610 | 1 | 207 | 0.0 | 0.0 | 0.00 | 0.00 | 0.00 | 86 | 1018.1 |
| 20260503060103 | 1 | 207 | 0.0 | 0.0 | 0.00 | 0.00 | 0.00 | 88 | 1018.5 |
| 20260503054507 | 1 | 207 | 0.0 | 0.0 | 0.00 | 0.00 | 0.00 | 88 | 1018.5 |
| 20260503053016 | 1 | 207 | 0.0 | 0.0 | 0.00 | 0.00 | 0.00 | 88 | 1018.5 |
| 20260503051559 | 2 | 207 | 0.0 | 0.0 | 0.00 | 0.00 | 0.00 | 86 | 1018.5 |
| 20260503050021 | 2 | 207 | 0.0 | 0.0 | 0.00 | 0.00 | 0.00 | 86 | 1018.5 |
| 20260503044604 | 2 | 207 | 0.0 | 0.0 | 0.00 | 0.00 | 0.00 | 85 | 1018.3 |
| 20260503043027 | 2 | 207 | 0.0 | 0.0 | 0.00 | 0.00 | 0.00 | 85 | 1018.4 |
| 20260503041604 | 2 | 207 | 0.0 | 0.0 | 0.00 | 0.00 | 0.00 | 84 | 1018.4 |
| 20260503040008 | 3 | 207 | 0.0 | 0.0 | 0.00 | 0.00 | 0.00 | 82 | 1018.5 |
| 20260503034519 | 3 | 207 | 0.0 | 0.0 | 0.00 | 0.00 | 0.00 | 81 | 1018.5 |
| 20260503033004 | 3 | 207 | 0.0 | 0.0 | 0.00 | 0.00 | 0.00 | 81 | 1018.5 |
| 20260503031607 | 4 | 207 | 0.0 | 0.0 | 0.00 | 0.00 | 0.00 | 79 | 1018.4 |
| 20260503030104 | 5 | 207 | 0.0 | 0.0 | 0.00 | 0.00 | 0.00 | 77 | 1018.4 |
| 20260503024516 | 5 | 207 | 0.0 | 0.0 | 0.00 | 0.00 | 0.00 | 76 | 1018.2 |
| 20260503023015 | 5 | 207 | 0.0 | 0.0 | 0.00 | 0.00 | 0.00 | 76 | 1018.2 |
| 20260503021554 | 5 | 207 | 0.0 | 0.0 | 0.00 | 0.00 | 0.00 | 74 | 1018.0 |
| 20260503020107 | 6 | 207 | 0.0 | 0.0 | 0.00 | 0.00 | 0.00 | 75 | 1017.9 |
| 20260503014516 | 6 | 207 | 0.0 | 0.0 | 0.00 | 0.00 | 0.00 | 71 | 1017.6 |
| 20260503013013 | 6 | 207 | 0.0 | 0.0 | 0.00 | 0.00 | 0.00 | 68 | 1017.4 |
| 20260503011549 | 7 | 207 | 0.0 | 0.0 | 0.00 | 0.00 | 0.00 | 68 | 1017.2 |
| 20260503010035 | 7 | 207 | 0.0 | 0.0 | 0.00 | 0.00 | 0.00 | 64 | 1017.0 |
| 20260503004527 | 7 | 207 | 0.0 | 0.0 | 0.00 | 0.00 | 0.00 | 64 | 1016.8 |
| 20260503003027 | 8 | 207 | 0.0 | 0.0 | 0.00 | 0.00 | 0.00 | 60 | 1016.8 |
| 20260503001502 | 10 | 209 | 0.0 | 0.0 | 0.00 | 0.00 | 0.00 | 55 | 1016.5 |
| 20260503000119 | 11 | 213 | 0.0 | 0.0 | 0.00 | 0.00 | 0.00 | 52 | 1016.4 |
| 20260502234606 | 11 | 219 | 0.0 | 8.0 | 0.00 | 0.00 | 0.00 | 44 | 1016.3 |
| 20260502233055 | 12 | 175 | 0.0 | 14.5 | 0.00 | 0.00 | 0.00 | 41 | 1016.2 |
| 20260502231610 | 12 | 201 | 0.0 | 14.5 | 0.00 | 0.00 | 0.00 | 42 | 1016.3 |
| 20260502230013 | 12 | 204 | 0.0 | 4.8 | 0.00 | 0.00 | 0.00 | 40 | 1016.3 |
| 20260502224605 | 12 | 208 | 0.0 | 9.7 | 0.00 | 0.00 | 0.00 | 39 | 1016.1 |
| 20260502223027 | 12 | 231 | 0.0 | 1.6 | 0.00 | 0.00 | 0.00 | 39 | 1016.1 |
| 20260502221541 | 12 | 179 | 0.0 | 1.6 | 0.00 | 0.00 | 0.00 | 42 | 1016.0 |
| 20260502220110 | 12 | 228 | 0.0 | 4.8 | 0.00 | 0.00 | 0.00 | 40 | 1016.0 |
| 20260502214528 | 12 | 149 | 0.0 | 8.0 | 0.00 | 0.00 | 0.00 | 40 | 1015.9 |
| 20260502213023 | 12 | 219 | 0.0 | 6.4 | 0.00 | 0.00 | 0.00 | 40 | 1015.9 |
| 20260502211559 | 13 | 256 | 0.0 | 12.9 | 0.00 | 0.00 | 0.00 | 37 | 1015.8 |
| 20260502210020 | 13 | 194 | 1.6 | 19.3 | 0.00 | 0.00 | 0.00 | 37 | 1015.7 |
| 20260502204610 | 13 | 180 | 1.6 | 17.7 | 0.00 | 0.00 | 0.00 | 36 | 1015.8 |
| 20260502203056 | 12 | 216 | 0.0 | 16.1 | 0.00 | 0.00 | 0.00 | 41 | 1016.0 |
| 20260502201509 | 13 | 189 | 0.0 | 24.1 | 0.00 | 0.00 | 0.00 | 37 | 1016.0 |